Location: Hertford
(51.8000°N, 0.0667°W)
Time: 12:34:33
(UTC+00:00)

Cosmos 1842 - Visible Passes

Search period start: 16 January 2021 00:00
Search period end: 26 January 2021 00:00
Orbit: 520 x 537 km, 82.5° (Epoch: 15 January)

Date Brightness Start Highest point End Pass type
(mag) Time Alt. Az. Time Alt. Az. Time Alt. Az.
16 Jan 6.0 17:37:44 10° WSW 17:40:07 16° WNW 17:42:30 10° NNW visible
17 Jan 6.0 17:26:34 10° WSW 17:29:05 17° WNW 17:31:38 10° NNW visible
18 Jan 5.9 17:15:24 10° WSW 17:18:03 18° WNW 17:20:45 10° NNW visible
19 Jan 5.8 17:04:16 10° WSW 17:07:02 19° WNW 17:09:50 10° NNW visible
